SL-16 DEB, 27689

Orbit data source: Space-Track

SL-16 DEB, 27689 is space debris in SSO originally from a launch on Mon, 10 Dec 2001 UTC launched from the Tyuratam Missile And Space Complex (TTMTR). Debris objects in space refer to the collection of defunct objects orbiting the Earth. Examples of debris include non-operational satellites, rocket bodies, and fragments generated from explosions, collisions, or faulty payload assembly.

Loading next visibility...
Identifier
27689, 2001-056H
Orbit
SSO
Country
Flag of CISCIS
Related business
Manufacturer
Yuzhnoe
Mission
Spacecraft
Bus & Motor
SEP MOTOR COVER, Unknown motor
Mass
~1 kg wet, ~1 kg dry
Launch date (UTC)
2001-12-10 (24 years ago)
Launch vehicle
Unknown
Launch site
Tyuratam Missile And Space Complex (TTMTR)
Object type
Payload
Rocket body
Debris
Shape & HBR
Cone, 0.5 m
Radar Cross Section
0.635 m², Medium (>0.1 m² and < 1m²)

Expand to show TLE details & history
Last TLE update: 10 hours ago

TLE from 10 hours ago
0 SL-16 DEB
1 27689U 01056H   26150.39463748 -.00000040  00000-0  78021-5 0  9990
2 27689  99.9516 101.5314 0207729 303.3341 175.6728 13.26040495183701
Epoch: 2026-05-30T09:28Z
TLE epoch observation values (Epoch: 2026-05-30T09:28:16.678Z)
Latitude
59.40136°
Longitude
-91.27846°
Altitude
1,327.931 km
Speed
7.124 km/s
True Right ascension
19h 54m 48s
True Declination
59° 15' 42"
Sunlit
Object was in daylight at epoch
Visualization orbit readout
Latitude
Unknown
Longitude
Unknown
Altitude
Unknown
Speed
Unknown
Apparent Right ascension
Unknown
Apparent Declination
Unknown
Sunlit
N/A
Visualization observer readout
Local Sidereal Time
05:28:43
Azimuth
Unknown
Elevation
Unknown
Doppler factor
Unknown
Orbital elements
Apogee altitude
1,315.65 km
Perigee altitude
1,002.51 km
Semi-major axis
7,537.217 km
Eccentricity
0.02077
Inclination
99.9516°
RAAN
101.5314°
Arg. of periapsis
303.3341°
True anomaly
175.84787°
Mean anomaly
175.6728°
Eccentric anomaly
175.76078°
Mean motion
3.31686 °/min
Orbital period
108.54 mins
BSTAR
0.0000078021
Loading maneuver chart data...
Computing Atmospheric mass density...
Loading historical data...
Loading historical data...
Loading historical data...
Loading historical data...
Loading historical data...
Loading historical data...
Loading historical data...

Documentation

Showing up to 5 results
|